Wind_Speed
11 11 10 11 11 11 12 12 13 13 12 10 9 7 8 8 7 7 6 5 4 5 7 5 5 7 6 5 5 4 2 5 7 5 4 3 2 3 4 5 7 8 8 8 9 11 11 9 7 4 5 8 8 8 8 7 7 7 5 2 2 2 0 3 5 6 6 6 6 7 7 7 8 8 8 8 8 8 9 9 11 12 13 13 13
10 10 10 12 11 10 10 11 13 13 13 11 10 8 8 10 10 8 7 7 6 6 6 5 4 6 7 6 3 4 4 4 5 4 4 3 4 4 4 5 5 7 8 8 8 10 11 8 6 4 4 6 8 8 8 8 7 8 8 4 4 4 2 0 2 5 6 6 6 6 6 6 7 7 7 7 7 7 8 8 9 11 11 12 13
11 11 12 12 12 11 9 9 12 13 13 11 10 8 8 10 12 10 10 9 7 8 8 6 4 5 7 7 3 3 5 5 4 4 5 6 6 5 4 5 5 5 6 8 9 9 10 9 6 4 3 5 7 6 7 8 8 8 8 6 6 5 4 2 1 3 4 5 6 6 6 5 6 6 6 7 7 7 7 8 9 10 11 11 12
13 14 14 13 12 12 10 8 12 13 12 11 10 10 9 9 11 11 10 10 8 9 11 9 7 5 6 7 4 3 5 6 6 5 6 8 8 5 4 5 5 4 5 6 8 8 10 9 7 5 3 4 6 5 6 7 8 8 9 8 8 7 5 4 3 2 2 4 5 6 6 5 5 5 5 6 6 6 6 7 8 9 9 10 10
15 15 14 13 12 12 12 10 12 12 11 11 11 11 10 8 10 10 10 12 10 9 10 10 9 8 7 7 6 4 4 7 8 6 4 7 8 6 6 6 5 5 5 5 7 7 9 9 9 7 5 5 5 4 4 5 7 8 8 9 9 10 7 5 5 4 3 3 4 5 5 5 4 4 4 5 5 5 5 6 6 7 8 9 10
15 14 11 11 11 10 11 12 11 11 11 13 13 12 10 8 9 11 11 12 12 9 10 10 9 8 8 7 6 6 5 6 7 5 3 6 7 6 7 8 6 5 5 5 6 7 8 8 9 8 6 7 6 5 4 4 6 7 7 8 8 10 10 9 8 6 5 4 4 4 5 5 5 4 3 3 4 4 4 4 5 5 6 7 8
13 13 11 10 11 9 9 10 9 9 11 13 15 13 12 9 9 12 13 11 11 10 9 10 9 7 7 7 6 7 8 6 5 3 3 4 5 5 7 8 6 6 6 6 6 7 8 8 8 9 8 7 7 7 8 7 5 6 6 7 6 8 11 12 11 8 6 5 5 5 5 5 5 4 3 2 2 3 3 3 3 3 4 5 7
11 11 13 13 13 10 9 9 8 9 9 12 15 15 13 11 9 12 14 12 10 10 8 8 8 6 6 5 4 4 6 7 6 5 4 3 3 4 5 7 8 6 6 7 8 7 8 8 9 9 9 9 8 7 9 9 7 6 7 7 7 6 9 12 13 11 9 7 7 6 6 6 6 5 4 3 2 2 2 3 3 2 3 4 6
9 9 11 13 12 10 9 9 9 8 8 11 15 15 14 11 9 12 15 14 11 10 8 6 6 6 5 4 3 3 3 4 5 6 6 6 4 3 2 4 7 9 10 10 9 9 9 9 9 9 10 10 10 9 9 10 10 8 7 7 8 6 6 9 12 13 11 9 8 7 6 7 7 7 6 4 3 2 2 2 2 2 2 3 4
11 10 10 10 8 7 8 8 9 8 8 12 15 14 12 10 10 12 14 13 12 10 9 6 5 5 4 4 3 2 3 3 3 4 5 5 6 6 4 1 2 6 11 14 12 9 9 10 10 10 11 11 11 10 10 10 11 11 9 9 9 8 6 6 9 12 13 10 8 9 7 6 6 6 6 5 4 3 2 2 2 2 3 3 4
12 10 9 8 6 7 8 8 9 9 10 13 14 13 11 9 10 12 13 12 11 10 9 8 6 5 4 3 2 1 2 2 3 3 3 4 4 6 7 4 2 2 3 11 16 13 10 11 12 12 12 12 12 11 11 11 11 12 12 12 12 11 8 6 6 9 12 11 10 10 10 8 6 5 4 4 4 3 2 2 3 3 3 4 4
10 8 8 7 6 7 7 7 8 9 11 13 13 13 11 10 10 12 13 12 10 9 10 9 7 5 3 1 0 1 1 2 3 4 4 4 4 4 5 4 5 4 3 2 8 11 12 13 13 14 13 13 13 13 13 13 12 12 13 14 14 13 11 9 7 7 9 11 11 11 11 10 8 6 5 4 4 4 3 3 3 4 4 4 4
8 7 7 7 6 7 7 6 6 8 11 12 12 12 11 11 12 11 12 12 11 9 8 7 5 3 1 1 1 1 2 3 3 4 5 5 4 3 3 1 1 4 4 3 3 3 6 10 13 17 17 15 14 14 15 15 14 14 14 15 16 16 15 13 10 8 8 9 11 11 11 10 9 8 7 7 6 5 4 4 4 4 4 4 5
8 7 8 7 6 7 7 6 5 6 9 11 12 13 12 11 12 11 10 10 9 7 5 4 4 3 2 1 1 1 2 2 3 4 4 5 5 3 3 1 4 5 4 4 5 6 4 5 9 14 18 19 18 18 17 17 17 16 16 16 16 17 16 16 15 14 11 10 10 11 12 11 10 9 9 9 8 7 6 5 5 5 5 5 5
10 9 10 8 6 7 8 6 5 5 7 8 10 13 13 12 11 10 9 8 6 4 4 4 4 4 3 2 1 1 1 1 3 4 2 2 4 3 1 1 3 3 3 4 7 7 5 4 4 6 12 17 18 20 20 20 20 19 17 16 16 17 16 16 17 16 15 13 11 11 11 12 11 10 10 11 11 10 8 7 6 6 6 6 6
12 12 11 9 7 9 9 7 5 4 6 7 8 11 13 12 11 10 8 7 6 4 5 5 5 5 3 1 1 2 1 1 2 3 2 2 1 2 1 1 1 2 3 4 7 7 6 5 5 5 8 10 13 16 17 18 20 22 21 19 18 18 17 16 17 17 16 15 13 12 13 13 13 12 11 12 12 12 11 9 8 8 8 8 7
13 12 12 12 11 10 10 9 7 5 5 6 7 8 9 9 10 11 9 8 7 6 5 6 6 5 4 3 1 1 1 1 2 2 1 2 2 2 2 2 1 2 1 2 4 6 7 5 5 6 8 10 11 14 13 12 15 20 23 22 21 21 20 18 18 18 18 17 16 15 15 15 15 14 13 13 13 13 12 11 10 9 9 9 9
14 13 13 13 13 13 13 12 11 10 8 6 7 8 7 7 7 8 7 7 7 6 6 5 7 7 5 4 2 2 2 0 2 0 1 1 2 3 3 3 3 4 2 1 2 4 7 7 5 5 6 8 9 12 13 12 12 15 18 19 21 22 23 23 21 20 20 19 18 17 17 17 17 17 16 16 15 14 13 13 12 11 11 11 11
14 13 14 13 13 13 12 12 13 15 15 13 13 12 9 8 7 6 6 6 7 7 6 5 6 6 6 5 2 2 1 0 1 0 1 1 1 3 4 5 5 6 4 4 6 6 6 7 9 8 5 5 5 8 11 13 13 14 15 15 16 19 21 24 24 22 21 21 20 19 19 18 18 18 18 18 17 16 16 15 15 14 14 13 13
11 12 13 13 12 12 12 12 13 14 16 17 16 15 14 13 12 11 10 8 7 8 9 7 4 4 5 6 5 4 3 3 3 2 1 0 2 2 3 4 5 6 6 5 5 7 8 7 8 9 7 5 5 6 7 9 10 13 15 14 14 14 16 19 23 24 23 22 22 22 21 21 20 20 20 20 19 19 19 18 18 18 17 16 15
12 12 13 12 13 14 14 12 11 10 12 14 14 14 15 15 14 13 14 13 11 11 12 9 6 4 3 4 5 5 3 1 2 4 2 1 1 3 2 1 4 5 5 6 5 6 9 9 9 9 9 8 8 7 7 7 6 7 10 13 14 14 13 13 17 22 24 24 24 24 24 23 22 22 22 23 23 23 22 21 20 20 20 20 19
14 14 13 12 13 15 14 12 10 9 9 10 12 13 13 13 13 13 14 15 14 14 13 12 10 8 6 5 5 4 3 2 0 2 2 1 1 3 5 5 4 4 3 5 6 7 8 9 10 9 9 10 10 10 9 7 7 6 6 8 11 13 12 11 12 16 20 23 24 25 25 25 24 23 24 25 26 26 26 25 24 22 22 22 21
14 14 13 12 13 14 15 14 13 12 12 11 12 12 12 12 12 11 11 12 13 13 12 12 12 12 12 10 9 8 7 6 6 6 5 3 1 3 7 10 8 7 8 9 8 7 9 10 11 10 9 7 9 11 11 10 9 8 7 7 8 9 10 11 11 12 15 18 21 22 23 23 23 25 26 27 27 26 27 27 25 24 24 23 21
13 13 13 13 14 15 15 14 13 13 13 13 12 12 11 11 10 10 10 10 10 9 9 9 10 12 12 11 10 9 8 8 7 8 8 6 4 3 6 9 8 9 13 11 9 8 9 10 11 11 10 8 9 11 13 13 11 8 7 8 8 8 9 10 11 11 13 14 15 16 17 17 19 21 25 28 27 25 25 26 25 24 23 23 22
13 13 14 14 13 14 14 13 13 13 12 12 11 11 10 10 11 11 11 11 10 9 8 9 10 10 10 9 7 6 6 7 6 6 6 5 7 5 5 7 5 8 12 12 11 10 11 13 16 17 12 9 9 10 11 10 9 8 7 6 7 8 8 9 9 10 11 12 13 12 13 14 15 17 20 25 26 25 25 25 25 24 23 23 24
13 14 14 13 10 11 12 12 13 13 12 10 10 11 10 11 12 11 12 12 11 11 10 10 10 10 9 8 6 5 6 5 4 4 4 5 7 6 4 5 4 6 9 10 11 10 11 14 17 19 19 19 16 9 7 6 6 8 7 5 5 7 7 8 8 10 10 11 12 12 13 14 15 16 17 19 22 24 26 27 27 27 25 25 26
12 12 13 12 10 9 9 12 13 13 12 10 9 10 10 10 10 10 11 11 11 11 11 11 11 11 9 7 6 6 5 5 4 4 4 3 5 5 5 4 3 4 5 8 10 8 9 13 13 15 18 19 20 16 11 8 6 5 5 4 6 7 8 9 10 11 11 11 11 12 13 13 14 15 16 17 17 19 22 25 27 28 28 28 27
13 12 12 11 9 8 8 10 11 12 12 11 10 8 8 8 8 9 10 9 8 9 10 10 10 10 9 6 6 7 6 5 5 5 4 4 4 5 7 7 4 3 3 5 6 4 9 14 12 13 18 17 16 16 13 12 11 10 9 7 7 8 9 9 9 10 11 11 11 12 13 14 14 14 15 16 16 17 19 21 23 26 28 29 29
14 14 13 11 9 7 8 9 9 11 12 11 10 7 6 7 8 8 8 6 5 6 7 8 8 8 8 5 4 6 5 6 7 8 7 7 6 6 6 8 6 4 2 3 4 4 8 15 12 12 18 17 16 14 11 11 12 12 12 10 9 9 8 8 9 10 10 11 12 12 13 15 16 17 18 18 18 18 18 19 21 22 24 27 29
16 15 14 12 10 8 9 9 9 11 11 9 9 8 6 6 7 7 6 5 5 4 4 4 5 5 6 6 4 4 5 6 8 8 8 8 7 5 4 5 5 4 2 2 3 4 10 16 14 15 20 20 18 16 12 11 11 12 12 12 12 11 11 10 10 10 10 11 13 14 15 16 17 18 20 20 20 20 20 19 19 20 22 24 26
18 16 16 14 11 10 9 9 10 11 11 8 8 9 7 6 7 7 6 6 6 5 3 2 2 3 4 6 4 2 3 4 4 4 5 6 6 5 4 3 3 3 4 3 2 4 11 17 18 20 22 21 18 15 13 13 13 13 13 13 14 14 14 13 13 13 13 12 13 14 15 17 18 19 20 20 20 21 20 20 19 19 21 22 24
19 17 16 14 13 11 10 10 10 11 12 10 10 10 9 8 8 8 7 7 7 5 4 3 2 2 3 3 2 2 3 2 1 2 2 4 5 6 6 4 3 3 5 4 3 7 13 16 18 21 22 20 18 17 18 18 16 14 14 14 15 15 16 15 15 14 14 14 14 15 17 18 20 20 20 21 21 20 20 20 19 18 19 20 22
20 18 16 14 13 12 12 12 11 11 13 13 12 13 12 11 11 11 9 8 8 7 5 4 4 3 1 0 2 5 4 2 1 1 1 3 4 6 7 6 5 4 6 7 6 8 14 16 17 19 19 19 19 20 22 22 20 18 17 16 16 16 17 17 17 15 14 14 15 16 18 19 19 19 20 21 21 21 19 19 19 19 19 20 21
21 18 16 15 13 12 12 13 12 12 12 14 15 15 14 13 13 13 12 11 11 10 8 7 7 6 4 4 4 5 5 5 4 2 1 3 4 5 5 3 4 5 5 7 8 8 12 16 16 16 16 17 19 21 22 23 23 22 21 20 19 18 17 17 17 17 17 16 17 17 18 19 19 19 20 20 20 20 20 19 18 18 19 20 21
21 19 17 15 14 14 14 15 15 14 13 14 15 16 16 16 15 15 14 13 13 13 12 11 10 8 7 6 5 5 6 7 5 3 2 4 4 5 5 3 4 6 6 8 10 9 11 13 14 15 17 18 19 20 21 21 21 22 22 21 20 19 18 18 19 19 18 18 18 18 18 18 19 19 20 19 18 19 21 21 20 20 20 21 22
17 16 16 16 16 16 17 18 18 17 16 17 17 17 17 18 17 17 17 16 15 15 15 15 13 11 10 9 8 7 8 8 6 3 3 5 5 4 5 5 5 7 8 9 9 9 10 13 15 16 17 18 19 19 19 20 20 21 22 22 21 20 19 18 18 19 18 18 17 17 18 19 19 19 19 18 17 18 19 21 21 21 21 22 22
16 13 14 17 17 17 17 18 20 21 20 19 20 20 19 20 20 19 19 19 17 16 16 16 14 13 13 13 10 9 9 9 7 5 5 7 6 5 5 6 7 8 9 9 9 10 11 13 16 17 17 17 18 18 18 20 22 22 21 21 20 20 19 18 18 18 19 19 19 19 20 20 20 20 19 18 18 19 20 22 22 22 22 22 22
17 13 13 16 17 15 14 13 16 21 23 22 22 22 22 22 22 21 21 22 19 17 17 16 14 13 13 12 10 10 10 9 8 8 8 8 8 8 7 7 8 9 9 9 10 11 12 13 15 16 17 17 18 19 18 19 21 21 21 22 21 20 21 22 22 22 22 22 23 22 22 22 21 20 19 18 18 20 22 24 26 25 24 23 23
19 16 15 15 15 14 14 13 14 18 22 24 24 25 25 24 24 23 24 23 20 19 18 17 15 14 13 12 11 10 10 9 9 9 10 10 9 8 8 8 8 9 10 10 10 11 13 15 16 17 18 19 19 20 19 20 21 20 22 24 23 22 23 23 23 24 24 23 23 22 21 21 20 19 18 16 16 18 21 24 27 29 28 27 26
20 20 19 19 19 19 19 21 21 20 20 23 25 27 27 27 26 25 25 24 21 20 19 18 16 15 14 13 11 10 10 11 11 11 11 11 10 9 9 11 11 11 10 10 11 11 13 15 17 19 20 21 21 22 22 21 20 20 22 24 24 24 25 24 22 21 21 21 20 20 19 19 19 19 19 16 14 15 18 20 23 26 28 30 31
18 19 19 19 20 21 21 22 25 24 23 22 23 25 27 27 28 27 26 25 23 21 20 18 16 15 14 13 13 12 12 13 13 13 13 12 11 11 13 14 12 10 10 10 10 11 13 15 17 18 19 21 22 23 22 21 20 21 24 24 25 26 28 27 24 19 18 20 21 21 21 22 24 24 23 21 17 16 18 19 19 20 22 25 27
14 15 15 16 18 19 19 20 22 24 25 25 24 24 24 25 26 26 26 26 24 23 22 20 18 16 14 14 14 13 13 13 13 13 13 13 13 14 14 12 10 9 9 8 9 10 12 13 15 16 17 18 20 20 22 23 24 24 25 25 26 27 26 25 24 22 20 21 25 28 26 24 27 29 28 27 25 23 21 20 20 20 20 21 22
11 12 13 14 16 18 19 20 22 23 24 25 25 25 25 24 23 24 25 26 26 25 24 22 21 19 17 15 14 13 14 14 14 14 14 14 15 15 12 9 8 8 8 8 9 10 11 12 14 15 16 18 20 21 22 23 22 23 26 26 25 25 21 18 18 21 23 23 28 33 32 29 29 32 32 31 30 29 28 26 25 23 21 20 19
9 10 11 13 13 13 14 16 18 19 20 21 22 23 24 24 24 24 24 26 26 26 25 24 23 21 19 16 14 13 14 14 15 16 15 16 16 15 12 10 9 9 9 9 10 10 11 13 16 17 18 20 22 22 21 21 22 24 27 26 24 23 21 19 18 21 26 28 30 33 35 34 31 32 34 33 33 33 32 30 28 26 23 20 18
9 11 12 11 10 9 10 12 13 15 17 19 20 20 22 23 24 24 24 26 28 27 26 25 23 20 17 15 14 14 14 15 15 15 15 15 14 13 12 12 11 11 10 11 11 11 12 14 17 20 21 22 23 23 21 21 24 26 25 25 24 23 23 23 24 28 32 33 30 29 33 34 30 28 30 30 29 31 31 29 27 26 24 22 18
9 11 13 12 10 9 10 12 12 12 14 16 17 18 19 19 19 22 24 26 27 24 22 20 18 16 15 13 13 14 14 13 12 12 13 14 13 13 13 12 12 11 11 11 11 12 14 16 18 21 22 23 24 24 23 22 24 25 26 26 25 24 26 28 30 31 33 32 28 24 27 30 28 27 28 27 26 27 27 27 26 25 25 24 22
7 8 9 11 12 13 13 12 11 12 13 12 12 13 14 15 16 19 21 22 22 20 18 16 13 13 13 11 10 11 10 8 8 9 10 12 13 13 12 12 12 12 12 13 14 16 17 18 19 21 22 23 23 22 20 19 21 23 24 25 26 27 30 31 30 28 27 27 24 20 23 27 28 28 29 27 25 25 25 24 25 25 25 25 24
8 8 8 8 10 14 16 13 12 12 12 10 8 8 10 13 16 18 18 18 17 15 14 12 10 11 12 11 11 10 9 9 9 11 13 14 14 14 13 12 12 13 14 15 16 16 16 17 18 19 20 20 19 18 18 19 21 22 24 25 26 27 28 26 25 25 24 23 20 18 22 26 26 27 28 26 25 26 24 23 23 23 23 23 23
7 9 9 9 9 11 14 15 14 13 10 7 6 7 11 14 16 16 15 15 13 11 10 11 11 10 10 10 11 11 11 11 12 14 16 16 15 14 14 14 14 15 15 15 14 13 13 15 17 18 19 19 20 20 21 23 25 26 27 27 25 24 23 20 18 20 21 21 19 19 22 25 25 26 28 27 26 23 19 18 18 19 20 20 20
7 7 8 9 10 10 11 13 13 12 9 9 10 11 14 15 15 14 13 12 11 9 8 8 8 7 8 10 12 12 12 14 14 15 15 14 13 13 12 13 14 15 16 17 17 18 19 20 22 23 24 25 26 28 29 30 30 29 29 29 27 25 23 19 18 20 21 21 19 17 19 22 23 23 24 23 21 18 16 16 18 20 17 14 14
8 9 9 10 11 11 11 12 12 10 9 11 13 14 15 14 13 14 13 12 11 8 6 5 5 6 10 12 13 12 13 14 13 12 11 10 10 10 11 13 15 17 19 20 21 23 24 24 25 25 25 25 24 25 24 24 24 23 23 24 25 24 24 23 21 18 15 14 13 13 17 21 19 18 17 15 12 11 14 17 18 18 13 8 7
Wind_Direction
185 196 210 212 214 214 217 220 213 206 203 204 205 189 191 199 188 179 179 191 219 218 190 168 194 195 166 145 173 199 133 142 170 159 154 163 144 141 139 151 156 157 154 143 150 162 163 164 168 146 156 183 175 166 167 158 165 161 149 179 206 209 47 76 88 85 88 95 92 89 89 88 87 87 88 91 94 98 98 100 102 100 103 104 100
179 194 211 211 207 205 209 209 203 199 196 197 193 191 208 206 192 190 196 194 205 209 186 168 197 201 174 144 131 182 174 147 159 166 171 188 184 163 144 146 147 153 159 152 146 157 167 167 164 140 130 173 176 175 175 170 180 165 153 186 210 210 246 274 108 97 92 96 96 91 89 89 89 88 88 89 92 96 96 97 102 103 104 106 104
174 188 202 199 192 189 186 183 186 189 188 188 192 203 210 195 188 189 190 190 200 205 195 188 198 201 181 165 143 176 187 175 179 199 208 205 189 175 160 155 150 150 160 163 155 154 166 172 165 146 118 150 160 163 167 173 193 176 161 196 212 208 226 232 188 120 109 101 101 99 92 90 91 93 92 92 92 95 97 97 103 106 104 105 107
184 192 198 195 191 187 179 173 180 184 183 185 192 199 192 185 189 186 182 184 191 190 190 196 190 183 188 190 200 208 196 197 206 206 210 208 192 188 187 171 166 168 167 173 173 163 165 171 173 169 144 141 148 149 149 164 191 184 174 202 213 206 213 217 222 201 140 120 110 106 101 95 90 93 95 94 94 95 99 100 104 109 110 110 110
195 200 202 198 197 189 182 183 189 192 191 191 192 186 177 185 192 186 186 189 186 170 172 182 173 166 182 200 211 212 185 188 202 201 197 204 202 211 209 191 180 183 184 186 187 181 174 173 178 185 169 156 169 173 153 156 184 188 183 202 212 204 200 208 224 235 216 169 132 116 109 107 99 94 95 95 96 97 100 102 104 111 116 117 117
198 204 207 207 206 197 189 191 194 200 198 197 196 184 176 189 189 185 189 192 192 178 169 169 160 161 174 188 199 202 196 175 182 191 176 187 202 224 218 206 199 196 200 197 197 198 194 186 183 191 186 172 180 191 196 180 175 187 189 196 206 203 200 203 213 227 234 214 175 144 126 122 120 109 100 101 101 103 105 103 102 110 120 124 126
187 194 198 208 219 216 206 204 198 197 198 198 198 188 184 186 179 179 177 176 183 176 171 171 164 163 164 169 178 193 209 201 185 191 166 161 185 218 222 217 211 210 218 213 211 211 210 209 197 196 197 192 192 191 203 209 184 179 191 200 207 208 209 208 206 219 233 224 209 187 164 150 142 134 126 120 119 122 119 114 111 112 121 128 132
166 180 191 199 213 215 214 214 200 196 199 194 192 189 188 188 175 172 166 158 162 158 161 174 173 172 162 161 163 175 206 213 215 216 195 167 154 184 217 229 228 229 232 229 228 223 217 219 216 209 206 207 210 201 200 211 209 189 189 209 225 223 219 215 208 211 224 230 231 217 194 179 167 159 156 150 142 142 140 135 132 129 136 135 136
157 169 189 199 206 209 208 207 200 201 203 193 191 189 189 190 172 163 161 154 154 152 154 168 174 182 183 182 181 176 190 198 211 218 214 212 202 188 198 228 237 243 244 242 235 230 226 224 224 221 216 215 217 214 207 210 215 208 203 214 226 233 227 221 213 208 214 227 233 230 216 199 189 179 171 164 156 156 166 172 165 160 166 158 148
177 177 190 199 201 204 203 204 207 209 205 195 190 188 189 192 170 158 160 158 158 156 148 146 149 160 173 188 193 194 200 194 200 211 217 222 222 224 232 238 236 251 250 245 237 232 236 234 230 228 226 224 223 222 217 213 214 215 226 228 223 229 232 226 221 213 212 217 225 233 237 227 209 196 184 173 166 166 176 194 200 193 190 188 175
176 183 191 193 192 200 195 192 202 209 204 194 189 187 185 188 177 164 162 159 160 157 146 144 144 145 153 171 202 244 249 262 258 241 236 235 228 227 239 249 254 349 289 243 234 232 241 243 234 232 233 229 228 229 223 220 220 216 221 225 221 224 230 231 233 223 217 216 219 229 241 247 240 225 207 188 179 182 188 200 216 216 209 204 198
154 154 162 170 176 188 187 181 195 207 200 189 188 190 186 181 178 171 165 158 158 161 156 153 149 144 152 163 281 299 291 303 289 270 262 256 254 245 243 252 262 294 359 244 236 239 244 247 244 240 238 236 234 234 229 225 227 221 215 217 220 224 229 234 239 235 228 222 219 225 237 245 245 239 232 220 204 197 202 211 223 228 227 220 214
138 135 136 135 149 162 163 166 187 207 202 194 192 189 185 181 176 173 170 163 161 167 168 167 162 154 179 244 276 276 284 312 318 296 277 262 263 277 264 258 350 314 306 308 308 295 257 251 253 245 238 238 238 238 235 230 231 230 222 218 221 223 229 240 246 243 240 235 229 229 234 241 241 238 238 240 234 221 214 218 226 231 235 232 227
133 144 140 117 123 147 151 150 161 190 197 202 204 192 182 181 180 177 174 171 171 178 182 175 168 162 137 59 353 283 286 320 352 333 295 261 255 281 297 293 60 30 335 315 328 338 325 276 260 249 240 238 240 242 241 237 234 234 230 227 227 226 227 236 247 250 247 243 240 237 239 243 244 240 236 238 243 240 230 225 231 237 241 239 235
123 132 144 130 114 132 146 149 146 165 179 188 200 194 185 186 188 185 181 183 187 195 204 177 135 130 118 67 357 356 9 4 37 22 345 276 246 244 305 357 70 34 343 2 360 343 322 291 274 251 241 241 244 247 249 246 243 238 235 233 234 233 228 228 240 249 249 244 242 242 243 246 247 244 239 238 242 244 241 237 239 244 248 249 244
119 117 128 134 125 120 128 133 129 142 151 149 165 183 190 193 196 198 200 206 210 208 208 185 141 129 126 108 123 81 40 317 38 43 55 85 126 162 163 182 77 351 310 359 360 340 327 309 287 264 246 248 249 248 251 251 248 244 241 239 239 239 235 229 230 237 243 243 242 241 244 247 247 247 245 244 245 246 248 247 245 247 250 254 252
123 117 113 119 125 123 118 111 102 116 136 128 136 165 181 189 197 206 212 217 214 194 186 187 168 158 149 133 89 96 194 255 37 42 131 134 127 136 141 186 218 312 306 25 2 328 328 327 295 274 260 259 255 248 251 250 244 243 242 241 242 243 241 237 231 230 235 239 239 239 241 245 247 249 250 248 248 248 251 251 250 250 250 254 256
121 121 113 110 112 116 114 105 96 102 119 125 127 139 147 160 177 192 198 201 198 178 171 187 188 186 175 157 127 122 157 88 73 5 262 198 205 205 211 216 247 282 269 239 285 299 324 329 314 299 274 266 261 250 249 247 240 239 239 239 242 245 245 242 239 234 233 234 235 236 238 243 247 249 250 252 251 248 249 252 254 254 252 253 254
119 117 115 112 107 109 111 110 105 102 108 114 116 115 115 123 131 138 150 168 182 172 164 178 189 199 205 207 195 139 139 244 162 236 337 292 237 206 227 241 256 270 258 250 261 264 299 320 317 314 297 278 268 251 245 244 244 242 242 243 241 243 244 243 243 241 237 234 234 236 237 240 245 248 250 252 253 252 251 251 254 256 255 253 252
121 120 117 112 105 110 116 118 115 109 110 113 114 111 108 112 115 115 114 122 143 137 130 137 145 175 200 211 218 214 224 250 239 210 130 292 294 249 244 248 244 246 245 262 277 266 264 276 297 306 295 274 265 259 252 246 246 244 241 240 239 239 238 239 242 243 242 239 236 238 240 239 242 248 252 253 255 256 255 254 253 255 256 254 253
116 122 124 114 101 107 116 119 119 119 118 114 114 114 111 113 116 113 108 108 116 114 110 112 112 119 157 180 187 193 199 203 227 223 192 173 278 290 303 276 249 250 251 266 282 277 271 264 271 290 296 289 275 270 274 263 255 249 238 235 238 242 241 240 243 244 245 245 243 243 244 244 245 249 253 257 257 257 257 256 254 253 254 254 253
112 116 124 123 108 104 105 106 107 112 123 122 119 117 111 108 111 114 115 113 116 119 115 110 107 102 105 133 147 144 135 113 98 252 243 220 260 319 356 357 317 309 312 307 306 295 287 279 273 280 298 304 292 280 281 275 272 276 258 238 240 246 252 255 254 249 245 246 247 249 250 251 253 253 254 257 257 256 256 256 254 253 253 252 250
118 116 120 124 118 111 105 102 100 96 103 110 109 109 109 107 108 116 124 123 124 128 126 119 111 100 97 106 112 105 96 80 56 50 56 51 25 336 352 356 350 351 346 332 324 307 295 294 292 288 285 298 305 296 290 286 285 286 276 255 249 252 259 264 265 260 251 246 246 249 253 255 257 257 255 255 255 253 254 254 252 252 250 245 241
127 124 121 121 120 118 114 110 110 104 100 102 103 106 109 111 113 115 121 129 139 143 137 132 124 109 101 102 105 103 95 85 70 60 59 49 41 23 2 3 354 344 345 345 338 330 328 332 338 331 307 293 302 303 303 296 286 288 282 263 257 261 265 269 272 273 266 255 249 249 254 257 259 258 254 252 251 250 251 250 247 246 244 240 235
136 132 127 124 123 125 125 120 117 114 111 111 114 118 117 116 117 115 113 119 130 137 134 135 133 121 112 109 109 108 99 94 87 74 73 69 62 49 17 15 354 331 345 351 348 354 11 24 32 32 23 4 331 304 306 306 286 288 290 264 266 277 279 281 282 281 276 266 261 261 265 267 268 266 260 255 251 249 248 247 247 246 244 241 238
142 136 130 126 127 129 131 131 127 123 119 116 114 115 116 116 115 112 109 112 116 119 120 126 132 128 120 116 116 115 107 102 90 73 76 81 73 61 21 10 351 341 349 347 350 7 24 32 39 40 38 36 24 353 329 330 302 298 294 271 288 302 301 304 300 293 286 279 278 279 280 279 276 274 269 265 259 254 249 246 249 251 249 246 243
146 138 132 133 138 137 135 137 137 133 128 124 123 122 119 116 116 114 109 106 108 111 113 116 124 125 115 106 101 103 108 100 74 54 58 65 68 60 38 25 356 341 344 341 347 2 14 16 23 23 23 28 28 25 19 14 12 352 336 315 320 327 320 312 306 301 295 292 291 289 287 286 283 279 276 275 270 264 257 250 249 252 251 249 246
149 142 141 148 154 152 148 145 143 144 141 137 135 137 137 130 125 118 108 99 96 100 103 105 114 117 107 93 81 81 89 83 55 43 57 62 62 52 27 24 22 339 327 341 343 344 7 9 6 4 8 10 11 20 26 19 15 10 1 347 334 334 331 321 313 310 305 300 297 292 287 286 288 288 284 282 279 274 269 260 254 253 252 251 249
157 152 155 165 168 162 160 155 149 149 149 150 151 151 151 139 129 119 110 106 100 93 89 92 103 109 105 98 78 61 61 66 57 54 65 67 67 61 24 11 18 10 341 337 325 297 347 3 3 351 352 352 350 354 4 4 359 354 349 340 328 324 322 320 318 315 313 310 306 300 294 293 292 292 289 287 284 281 278 272 264 258 256 254 253
164 162 165 173 175 173 172 168 162 155 153 162 169 163 161 153 141 137 136 144 144 117 94 91 97 105 110 107 84 42 41 57 55 51 59 63 60 58 31 5 8 14 6 327 316 308 334 347 349 342 340 340 339 340 345 349 346 341 337 332 325 314 304 301 304 306 308 312 312 306 299 297 295 293 291 289 286 284 282 279 272 265 260 258 255
169 168 172 178 180 179 179 178 176 169 164 176 185 173 179 187 167 164 170 166 163 150 145 158 104 99 118 117 99 37 24 40 42 39 40 40 35 30 31 30 16 354 340 329 296 303 326 333 332 332 336 338 341 346 348 344 336 327 325 325 322 315 308 301 296 295 295 297 305 306 301 298 295 292 289 287 287 285 281 279 278 273 266 261 258
174 173 177 182 185 186 189 190 188 183 177 184 194 186 191 205 191 188 196 178 175 182 176 189 195 113 110 117 112 347 354 24 77 82 21 349 340 336 339 348 353 329 314 307 269 290 314 324 324 328 336 341 347 350 343 334 328 324 325 326 325 322 321 316 307 302 297 293 294 296 297 298 298 295 289 285 283 284 282 278 277 276 272 267 263
178 179 183 187 191 191 195 199 198 195 191 191 199 196 197 208 203 203 211 194 192 212 209 200 208 199 182 252 294 307 317 335 25 159 336 341 331 326 323 314 318 327 309 295 279 288 309 318 321 327 337 342 342 339 335 333 334 334 333 331 328 326 323 320 318 316 313 308 302 297 297 298 298 298 295 289 282 279 281 281 280 279 277 273 269
179 183 188 192 198 199 202 208 208 208 206 203 206 205 203 210 211 209 213 203 199 215 221 214 217 222 226 231 256 282 287 304 320 296 313 358 358 351 355 350 339 349 343 322 312 302 306 318 326 330 335 338 334 331 331 332 333 332 328 327 327 324 320 318 318 319 319 316 311 306 304 302 301 301 299 294 285 275 272 275 279 282 282 280 276
177 186 192 194 199 204 207 210 212 216 218 215 215 214 210 213 216 214 215 212 206 212 220 217 217 226 229 223 227 244 259 279 298 304 322 338 332 325 335 349 343 342 345 342 339 331 318 321 331 334 334 333 328 327 327 327 326 326 324 324 324 322 319 317 316 317 318 317 313 309 308 307 305 304 302 297 288 275 268 269 272 277 281 282 280
162 174 189 198 204 208 210 212 214 218 221 220 221 222 219 218 220 218 217 219 215 213 218 217 215 225 230 226 225 231 247 265 275 283 300 302 298 292 297 305 310 316 322 327 335 340 334 329 329 329 331 328 323 324 326 326 326 324 323 323 323 322 321 318 316 316 317 317 316 315 315 314 312 311 308 303 293 279 270 269 272 275 277 280 281
158 157 174 187 195 201 207 214 218 220 222 224 224 225 225 222 222 222 220 221 220 217 220 219 218 224 229 228 225 223 236 254 255 253 266 272 276 277 283 295 297 299 307 314 321 329 333 334 329 324 325 326 324 324 327 330 330 327 325 323 323 323 324 322 318 317 319 319 317 316 316 316 318 317 314 309 301 287 275 271 273 275 277 279 281
181 184 185 182 184 191 202 220 232 230 227 227 228 228 227 223 222 223 223 224 224 221 221 222 221 225 226 222 216 215 228 241 238 240 254 261 268 276 281 289 292 294 301 308 314 319 325 329 327 324 323 325 328 328 329 334 334 335 338 334 327 323 324 325 321 319 321 320 316 314 316 319 321 321 319 315 310 301 287 277 274 275 277 278 280
204 219 224 211 203 203 209 226 247 248 236 232 232 231 230 226 223 223 224 224 223 221 221 223 222 222 219 212 210 216 226 234 234 238 249 257 265 271 275 282 287 293 300 307 312 316 321 323 321 322 320 318 320 322 323 325 325 331 342 344 336 328 325 325 325 324 323 321 318 315 315 317 319 320 321 321 319 314 303 289 280 276 276 278 278
219 228 235 235 234 236 237 238 244 248 241 236 237 234 231 228 224 223 224 222 221 219 219 220 218 218 220 221 224 225 226 232 238 242 248 254 257 263 277 286 288 291 297 303 311 316 321 322 320 321 322 318 318 321 323 326 328 329 336 340 336 331 327 324 321 325 328 326 324 319 315 317 318 317 320 324 327 331 328 317 301 287 280 279 278
222 230 234 235 237 242 244 240 238 239 238 238 241 237 233 229 225 223 223 221 219 216 214 213 213 215 221 228 231 229 229 236 243 247 250 251 253 271 288 291 288 290 294 298 309 320 324 324 321 323 324 321 322 326 327 328 330 328 327 328 327 326 328 324 317 318 326 325 324 319 313 317 322 319 316 318 320 328 336 337 330 314 300 293 288
222 231 234 233 235 240 241 239 241 243 241 241 244 241 237 232 225 221 221 220 217 214 209 206 207 211 216 221 223 226 233 241 245 248 252 254 263 279 289 289 286 290 293 298 311 323 324 319 317 319 318 313 315 320 319 318 321 322 323 326 326 325 327 326 318 313 314 318 322 320 310 310 319 319 314 312 311 313 318 323 327 326 317 310 305
221 225 231 235 238 243 246 247 250 251 249 250 251 250 247 240 229 223 221 218 215 211 207 206 209 212 213 216 220 229 239 246 249 254 258 263 272 281 286 285 285 284 285 291 303 312 312 307 307 308 304 301 305 309 309 311 315 316 317 320 322 323 326 329 320 311 311 315 322 320 310 304 311 314 310 309 308 310 312 311 312 317 318 314 310
219 222 230 236 239 244 248 251 256 258 259 260 260 259 258 251 239 229 223 217 212 208 207 209 212 212 212 217 224 232 239 245 250 255 260 266 273 279 283 283 277 272 274 279 287 296 300 299 297 297 296 296 298 301 303 305 307 309 310 312 314 315 317 318 312 308 312 317 320 318 309 304 308 309 306 304 305 308 310 310 308 309 311 312 308
225 225 229 235 242 246 248 253 261 264 262 261 260 260 260 256 245 233 224 217 211 208 207 208 209 208 208 213 222 231 238 242 247 252 257 264 271 275 278 278 274 270 271 273 282 291 295 294 292 294 299 299 296 298 301 302 302 302 302 303 302 302 303 306 304 304 308 313 317 313 305 304 309 308 303 303 304 305 308 310 311 309 307 307 305
226 224 220 220 223 232 245 255 263 267 264 260 260 258 257 254 242 227 217 211 206 202 200 199 199 200 203 210 221 229 234 240 247 253 256 262 269 272 271 267 264 264 266 273 282 289 292 294 293 294 300 301 299 301 304 303 299 296 296 296 297 297 297 298 298 300 302 306 310 307 299 300 307 304 299 300 303 304 307 310 310 309 306 304 302
234 236 229 225 228 234 244 254 261 266 266 266 267 263 256 245 227 214 207 200 193 189 186 186 191 199 205 212 218 217 219 235 253 259 260 262 265 265 262 258 260 264 268 276 286 290 293 294 293 295 299 302 303 303 303 300 295 292 292 292 293 295 297 296 295 296 298 300 305 303 293 297 303 299 295 298 301 301 304 307 307 306 303 300 298
238 248 253 253 250 241 234 235 245 254 261 267 268 257 239 222 208 198 190 182 178 181 181 181 193 205 210 219 226 230 242 262 270 269 268 268 267 266 263 263 268 272 276 282 288 291 293 290 288 290 293 297 299 298 297 297 295 294 294 293 294 298 299 297 293 293 295 297 300 299 292 295 299 296 294 299 303 303 305 307 308 308 304 297 289
243 246 253 263 269 249 229 224 230 235 237 238 234 215 202 198 193 186 181 177 178 187 192 191 197 204 213 231 247 259 266 266 261 259 260 260 258 258 261 266 272 275 278 282 283 282 281 279 278 280 282 284 285 286 289 291 292 295 297 297 298 301 300 296 291 291 292 291 295 299 291 288 292 293 292 297 303 307 311 313 318 323 314 293 274
257 252 250 253 258 253 237 227 224 222 215 206 201 195 191 189 186 181 180 177 172 174 186 195 205 220 238 249 256 258 255 251 249 248 249 249 250 257 266 274 280 283 285 289 289 288 287 285 284 283 282 283 283 283 286 287 287 289 291 291 293 294 290 286 286 291 293 289 293 299 289 286 293 295 297 304 308 309 312 317 329 337 325 291 262
261 257 253 249 244 237 231 227 221 214 206 198 197 197 194 193 194 190 184 177 166 159 165 181 207 244 253 253 253 252 246 243 243 243 246 253 265 278 287 294 298 299 300 302 302 302 301 300 300 299 298 298 297 295 295 295 295 294 291 291 293 289 282 279 281 287 289 287 291 295 289 291 300 304 312 322 321 315 316 318 331 345 336 297 268
Height
822 823 825 827 827 827 827 826 826 826 827 827 827 827 828 829 830 830 831 831 832 833 834 834 835 835 836 836 837 838 838 839 839 839 839 840 841 841 841 841 841 841 841 842 842 842 842 843 843 844 844 845 846 847 847 848 849 850 850 851 851 851 852 852 852 852 852 852 852 852 852 852 852 852 852 852 853 853 853 853 853 853 853 853 853
823 824 825 825 825 826 826 826 826 826 826 827 827 827 828 828 829 829 830 831 832 832 833 834 834 835 835 835 836 837 838 838 838 839 839 840 840 841 841 841 841 841 841 842 842 843 843 843 843 843 844 844 845 846 847 848 849 849 850 851 851 851 851 852 852 852 852 852 852 852 852 852 852 853 853 853 853 853 853 853 853 853 853 854 854
822 821 821 822 823 824 824 825 825 826 826 826 827 827 828 828 828 829 829 830 832 832 832 833 834 835 835 835 836 836 837 838 838 838 839 840 840 840 840 841 841 841 841 842 842 843 843 843 843 843 843 844 844 845 846 847 848 849 850 850 850 851 851 851 852 852 853 853 853 853 853 853 853 853 853 853 854 854 854 854 854 854 854 854 854
821 820 819 820 822 822 824 824 825 825 826 826 827 827 828 828 828 828 829 830 831 831 832 832 833 834 834 834 835 835 836 837 838 838 838 839 839 839 840 840 841 841 841 842 842 843 843 843 843 843 843 843 844 845 845 846 847 848 849 850 850 850 850 851 851 852 852 853 853 853 853 853 853 854 854 854 854 854 854 854 854 854 855 855 855
820 818 818 819 821 822 823 823 824 824 825 825 826 827 827 827 828 828 828 829 829 830 831 832 832 833 833 833 834 834 835 836 837 837 838 838 838 839 839 839 840 841 841 841 842 842 842 843 843 843 843 843 844 844 845 845 846 847 848 848 849 849 850 850 851 851 852 852 853 853 853 853 854 854 854 854 854 854 854 855 855 855 855 855 855
819 818 818 818 819 821 821 822 823 823 823 824 825 826 826 826 826 827 827 828 828 829 830 830 831 832 832 833 833 834 834 835 836 836 837 837 838 838 839 839 839 840 841 841 842 842 842 842 842 842 843 843 844 844 844 845 845 846 847 847 848 848 849 849 850 850 851 852 852 852 853 853 854 854 854 854 854 854 854 855 855 855 855 855 856
820 820 820 819 819 820 820 821 822 822 822 823 824 825 825 825 825 826 826 827 828 829 829 830 831 832 832 832 833 833 833 834 835 836 836 837 838 838 838 839 839 839 840 840 841 842 842 842 842 842 842 843 843 843 844 844 845 845 846 847 847 847 848 848 849 849 850 851 851 852 852 853 853 854 854 854 854 854 854 855 855 855 855 855 856
820 821 821 820 820 820 820 820 821 822 822 822 823 824 824 825 825 825 826 827 828 828 829 830 831 832 832 832 833 833 833 833 834 835 835 836 837 838 838 838 838 839 839 839 840 840 841 842 842 842 842 842 842 843 843 844 845 845 846 846 847 847 847 847 847 848 849 850 850 851 851 852 852 853 854 854 854 854 854 855 855 855 855 856 856
818 819 820 820 819 819 819 820 820 821 821 822 822 823 823 824 824 825 825 826 827 828 829 831 831 832 832 832 832 833 833 833 834 834 835 835 836 837 838 838 838 838 838 838 839 839 840 841 841 842 842 842 842 842 843 843 844 845 846 846 847 847 847 847 847 848 848 849 850 850 851 851 852 852 853 854 854 854 854 854 855 855 856 856 856
818 819 819 819 818 818 819 819 820 820 820 820 821 822 823 823 824 825 825 825 827 828 829 830 831 831 831 832 832 832 833 833 833 833 834 834 835 836 837 837 838 839 838 838 838 838 839 840 840 841 841 841 842 842 842 843 843 844 845 846 846 846 847 847 847 847 848 848 849 850 850 851 851 852 853 854 854 854 854 854 855 855 855 856 856
819 819 819 818 817 818 818 819 819 819 819 820 821 821 822 823 823 824 825 825 827 828 829 830 831 831 831 832 832 832 833 833 833 833 833 834 834 835 835 836 837 838 838 837 838 838 838 838 839 840 840 841 841 841 841 842 842 843 844 845 846 846 846 846 846 847 847 848 849 850 850 851 851 852 853 853 854 854 854 854 854 855 855 856 856
818 818 817 817 817 817 818 818 819 819 820 820 821 821 822 823 823 824 825 826 827 828 829 830 830 831 831 832 832 833 833 833 833 833 833 833 834 834 835 835 836 837 837 837 838 838 838 838 838 838 839 839 840 840 840 841 841 842 843 844 844 845 845 845 846 847 847 848 848 849 849 850 851 851 852 853 853 854 853 854 854 854 855 855 856
816 816 816 816 816 817 817 818 818 818 819 820 821 821 822 823 824 824 825 826 827 828 829 830 830 831 831 831 832 832 833 833 833 833 833 833 833 834 834 834 835 836 836 836 837 837 837 838 838 838 838 838 839 839 839 840 840 841 841 842 843 844 844 844 845 846 846 847 848 848 848 849 850 850 851 852 853 853 853 853 853 854 854 855 855
815 815 815 816 816 816 817 818 818 818 819 820 820 821 822 823 824 825 826 826 828 829 829 830 830 831 831 831 832 832 832 832 833 833 832 832 833 833 834 833 834 834 835 835 835 836 837 837 837 837 837 838 838 838 839 839 839 840 840 841 841 842 843 844 844 845 846 846 846 847 847 848 849 849 850 851 852 852 852 852 853 853 854 854 855
815 815 815 816 816 816 817 818 818 818 819 819 819 820 822 823 824 825 826 827 828 829 829 829 830 831 832 832 833 833 833 833 833 833 833 832 833 833 833 833 833 833 833 833 834 835 836 836 836 836 836 837 837 838 838 838 838 838 839 839 840 841 842 843 843 844 845 845 845 846 846 847 847 848 849 850 851 851 851 852 852 853 853 854 854
815 815 816 816 817 817 817 818 818 818 819 819 819 820 821 823 824 825 826 826 827 828 829 829 829 830 832 833 833 834 834 834 833 833 833 832 832 832 832 833 833 833 832 833 834 835 835 835 835 835 836 836 836 836 836 836 836 837 838 838 838 839 840 841 842 843 843 844 844 845 845 845 846 847 848 849 850 850 851 851 851 852 852 853 854
814 815 816 816 817 817 818 818 819 819 819 819 819 820 821 823 824 825 825 826 826 827 828 829 829 830 831 832 833 834 835 834 833 833 833 832 832 832 832 832 833 833 833 833 834 834 834 834 834 834 835 835 835 834 834 834 834 835 836 837 837 838 838 839 840 841 842 842 843 843 844 844 845 846 847 848 848 849 849 850 850 851 852 852 853
814 815 815 816 816 817 818 819 819 818 819 819 820 821 822 823 824 824 825 825 826 826 827 828 829 830 831 831 832 833 833 833 834 834 833 832 832 832 832 832 833 833 833 833 833 833 833 833 833 833 833 833 833 833 832 832 832 833 834 835 835 836 837 838 838 839 840 841 841 842 842 842 843 844 845 846 847 847 848 848 849 850 850 851 852
814 815 815 816 816 817 818 819 819 819 819 820 820 821 822 823 824 824 824 825 825 826 826 828 829 830 831 831 831 832 832 833 834 834 834 833 832 832 832 832 832 833 833 832 832 832 832 832 832 832 832 832 831 831 831 831 831 831 832 832 833 834 834 835 836 837 838 839 839 840 840 841 841 842 843 844 845 846 846 847 847 848 849 849 850
815 815 816 816 817 817 818 819 819 820 821 821 821 822 823 823 824 824 824 824 825 825 826 827 828 829 830 831 831 832 832 833 833 833 834 834 833 832 832 832 832 832 832 832 832 832 832 832 832 831 831 830 830 830 830 830 830 829 830 830 831 832 832 833 834 835 836 837 837 838 838 839 840 840 841 842 843 843 844 845 845 846 847 848 848
815 816 817 818 818 818 819 820 820 821 822 822 823 823 824 824 824 825 824 825 825 826 826 827 828 829 829 830 831 832 832 833 833 833 833 834 833 832 832 832 832 832 832 831 831 831 831 831 831 830 829 829 828 829 829 829 829 828 828 829 830 830 831 831 832 833 834 835 835 836 837 838 839 839 839 840 840 841 841 842 843 844 845 845 846
816 817 818 818 819 820 820 821 822 822 822 823 824 824 825 825 825 826 826 826 826 827 827 828 829 829 829 830 830 831 832 833 833 833 833 833 833 833 832 832 832 831 831 831 831 831 831 830 830 829 828 827 827 827 827 827 827 827 827 828 828 829 829 830 830 831 831 832 833 834 835 836 837 838 838 837 837 838 838 839 840 841 842 843 844
817 818 819 819 820 821 822 823 823 823 824 824 825 826 826 826 826 827 827 828 828 828 829 829 830 830 830 830 831 831 832 833 833 833 833 833 834 834 833 832 832 832 831 831 831 830 830 829 829 828 827 827 826 826 826 826 826 826 826 827 827 827 828 828 829 829 829 830 831 831 833 834 834 835 835 835 835 835 836 836 837 838 839 840 841
818 818 820 821 821 822 823 824 824 825 825 826 826 827 827 827 828 828 829 829 829 830 830 830 831 831 831 831 831 832 832 833 833 833 833 833 834 834 834 833 833 832 831 830 829 829 829 829 828 827 826 826 826 825 825 825 824 824 825 825 826 827 827 827 827 828 828 828 829 829 830 831 831 832 832 832 832 833 834 834 835 836 837 838 839
818 819 820 821 822 823 824 825 825 826 826 827 827 828 828 828 829 829 829 830 830 830 831 831 831 831 832 832 832 832 833 833 833 833 833 833 833 834 834 834 834 832 831 830 829 829 828 829 828 827 826 826 825 824 824 824 824 824 824 825 826 826 826 826 826 826 827 827 827 827 828 828 829 829 830 830 830 831 831 832 832 833 834 835 836
819 820 821 822 823 824 825 826 826 827 828 828 828 829 829 830 830 830 830 831 831 831 831 831 832 832 832 833 833 833 833 833 833 833 833 833 833 834 834 834 833 832 831 830 829 829 828 828 828 827 826 825 825 824 824 824 824 824 824 825 825 825 825 825 825 825 825 826 826 826 826 827 827 827 828 828 828 828 829 829 830 830 831 832 833
819 821 822 823 824 825 826 826 827 828 829 829 830 830 831 831 831 831 832 832 832 832 832 832 832 833 833 833 834 834 834 834 834 834 834 834 834 834 834 834 834 832 831 830 828 829 829 828 827 826 825 825 825 824 824 824 824 824 825 825 826 825 825 825 825 825 824 824 824 825 825 825 825 826 826 826 826 827 827 827 828 828 829 830 831
820 821 823 824 825 825 826 827 828 828 829 830 831 831 832 832 833 833 833 833 833 833 833 833 833 834 834 834 834 834 834 834 835 835 835 835 835 835 835 835 835 834 833 831 829 828 828 828 827 826 826 826 826 825 825 826 825 825 825 826 825 825 824 824 824 824 824 823 823 823 824 824 824 824 825 825 825 825 825 825 826 826 827 827 828
819 821 822 823 825 826 827 827 828 829 830 831 831 832 833 833 834 834 834 834 835 835 835 835 835 835 835 835 835 835 835 835 835 835 835 835 836 836 836 836 836 836 835 834 832 830 828 829 828 827 826 826 826 826 826 826 826 826 825 825 824 824 823 822 822 822 822 822 822 822 822 823 823 823 823 823 823 823 823 823 823 824 824 825 825
818 820 822 823 825 826 827 828 829 830 831 831 832 832 833 833 834 834 835 835 835 836 836 836 836 836 836 836 836 836 836 836 836 836 836 836 836 836 836 836 836 836 836 836 835 832 829 829 829 828 827 826 826 825 825 825 825 825 824 823 823 822 821 821 820 820 820 820 820 820 821 821 821 821 821 821 821 821 821 821 821 821 821 822 822
817 819 821 823 825 826 827 828 829 830 831 832 833 833 833 833 834 834 835 835 836 836 836 836 836 836 836 836 836 836 836 836 836 836 836 836 836 836 836 836 836 836 836 836 835 833 831 830 829 829 828 827 826 825 825 825 824 823 823 822 821 820 820 819 818 818 818 818 818 819 819 819 819 818 818 818 818 818 819 819 819 819 819 819 820
817 818 820 822 824 825 827 828 829 830 831 832 833 833 834 834 834 834 835 835 835 836 836 837 837 837 837 837 837 837 837 837 836 836 836 836 836 836 836 836 836 836 835 835 835 833 832 831 829 828 827 826 825 825 824 824 823 823 822 821 820 819 818 818 817 817 817 817 817 817 817 817 816 816 816 816 816 816 816 816 817 817 817 817 817
816 818 820 822 823 825 826 827 829 830 831 832 832 833 833 834 834 834 835 835 835 835 836 836 836 837 837 837 838 838 838 837 837 837 836 836 836 836 836 835 835 835 835 835 834 832 831 831 830 829 828 827 825 824 824 823 822 821 820 820 819 819 818 817 816 816 816 815 815 815 815 815 814 814 813 813 813 814 814 814 814 814 815 815 815
815 817 819 821 823 825 826 827 828 829 830 831 832 832 833 833 834 834 834 835 835 835 835 836 836 836 837 837 838 838 838 838 838 837 837 837 837 836 836 835 835 835 835 834 833 832 830 830 830 829 828 827 826 825 824 823 822 821 820 819 818 818 817 816 815 815 814 814 814 813 813 813 812 812 811 811 811 811 811 812 812 812 812 812 812
813 815 818 820 822 823 825 826 827 828 829 830 831 832 832 833 833 833 834 834 834 834 834 835 835 835 836 837 837 837 837 838 838 838 837 837 836 836 835 835 835 834 834 833 832 832 830 830 829 828 828 827 826 825 825 824 822 821 820 819 818 817 816 815 815 814 813 813 812 811 811 810 810 809 808 808 808 808 809 809 810 810 810 810 810
812 814 817 819 821 822 823 824 825 826 827 828 829 830 831 832 832 832 833 833 833 833 833 833 834 834 835 835 836 836 836 837 837 837 837 837 836 835 835 835 834 833 833 833 832 832 830 829 828 828 827 827 826 825 825 824 823 822 820 819 817 816 815 814 813 812 812 811 810 809 808 808 807 806 806 806 805 806 806 807 807 807 807 807 807
810 812 815 817 819 821 822 823 823 823 824 825 827 827 829 829 830 830 831 831 832 832 832 833 833 833 833 834 834 835 836 836 837 837 837 836 836 835 835 834 834 833 833 832 832 831 830 829 828 827 827 826 825 825 824 823 822 821 819 818 817 815 814 813 812 811 810 809 808 807 806 806 805 805 804 803 803 803 804 804 804 804 804 804 804
809 811 812 814 815 817 820 822 822 822 822 823 824 825 826 827 828 828 829 829 830 831 831 832 832 832 832 833 834 834 835 835 836 837 837 836 836 835 834 834 833 833 832 832 831 830 830 829 828 827 826 826 825 824 824 823 821 820 818 816 815 814 813 811 810 809 808 807 806 806 805 805 804 803 802 801 801 801 801 801 802 802 802 802 802
809 811 812 813 813 814 816 818 820 821 821 821 821 822 823 824 825 826 827 827 828 829 830 831 831 832 832 833 833 833 834 835 835 836 836 836 836 835 834 834 833 833 832 832 831 831 830 829 828 827 826 826 825 824 823 822 821 819 818 815 813 812 812 810 809 808 807 807 806 805 805 804 802 801 800 799 799 798 798 799 799 799 799 799 799
809 810 811 811 812 812 812 813 815 817 819 819 819 819 820 821 823 823 824 826 826 828 829 829 830 831 831 832 832 833 833 833 834 835 835 835 835 835 834 834 833 832 832 832 831 831 830 829 828 828 826 825 824 823 823 821 820 819 818 817 814 812 811 810 809 808 807 805 804 803 803 802 801 800 799 798 798 797 796 795 795 796 796 796 796
807 808 809 809 809 809 810 810 811 813 815 817 817 818 818 818 820 821 822 823 824 826 827 828 828 829 830 830 831 831 832 832 833 833 833 834 834 834 834 833 832 831 831 831 831 830 830 829 828 828 827 825 824 823 822 821 821 820 818 817 814 812 811 809 808 809 807 805 803 802 801 800 799 798 797 797 797 796 795 794 794 793 793 793 793
805 806 807 807 807 807 807 807 808 810 812 814 815 816 816 816 817 818 819 821 822 823 824 825 826 827 827 828 829 830 831 831 831 832 832 833 833 833 833 832 831 830 830 830 830 830 830 829 829 828 827 825 825 824 823 821 821 819 817 816 814 812 811 808 807 807 807 805 802 800 799 799 798 796 796 795 795 795 794 793 793 792 792 791 790
804 805 805 806 805 805 806 806 807 809 810 811 812 813 814 815 815 816 817 818 819 820 821 822 823 824 825 826 827 828 829 830 830 831 831 832 831 831 831 831 830 830 829 829 829 829 829 828 828 828 827 825 824 824 823 821 820 819 817 816 814 812 811 809 807 805 805 805 804 800 798 798 798 796 794 794 793 793 793 792 792 791 790 789 788
802 803 804 804 804 804 805 805 806 807 808 809 809 810 811 812 813 814 814 815 816 817 818 819 820 821 823 824 826 827 828 828 829 830 830 830 830 830 830 830 830 829 829 829 828 828 827 827 827 827 826 825 824 823 823 821 820 818 817 815 814 812 811 810 807 805 804 805 805 801 796 796 798 796 793 792 792 790 790 790 790 789 788 788 787
801 801 802 803 803 803 803 804 805 805 806 806 807 808 808 809 810 811 811 812 813 814 815 816 818 819 821 823 824 825 826 827 828 828 829 829 829 829 829 828 828 829 828 828 827 827 826 826 825 825 825 824 823 822 822 821 819 818 816 814 814 812 810 809 807 804 803 804 804 800 794 793 796 795 792 791 790 789 788 787 787 786 786 785 785
800 800 801 801 802 802 803 803 804 804 805 805 805 805 806 807 808 808 809 809 810 812 814 815 817 819 820 822 822 823 824 825 826 827 827 827 827 827 827 827 827 827 827 827 827 826 825 825 824 823 823 823 821 820 820 820 818 817 815 813 812 811 809 807 805 804 803 803 804 800 793 791 794 792 789 789 789 787 787 785 784 784 783 782 782
800 800 801 801 801 802 802 803 803 803 803 803 803 804 804 805 806 807 808 809 810 812 813 815 818 819 820 821 822 823 823 824 825 826 826 826 826 826 825 825 825 825 825 825 825 824 824 824 823 822 821 821 820 819 818 818 817 816 814 813 811 809 807 804 803 802 802 802 803 801 793 790 792 790 786 787 787 785 785 784 782 781 780 779 779
799 800 800 800 800 800 800 801 802 802 802 802 802 803 803 804 805 807 808 809 810 811 813 815 818 819 819 820 821 822 822 823 824 825 825 825 824 824 824 823 823 824 824 824 823 823 822 822 821 820 819 819 818 817 816 816 814 813 812 810 809 807 805 802 800 800 800 799 800 800 794 790 791 788 784 784 785 783 782 782 781 780 779 777 777
798 799 799 799 799 799 799 800 800 800 801 801 802 803 803 804 805 806 808 809 811 812 814 816 817 817 818 819 820 821 821 821 822 823 823 822 822 822 821 821 821 821 821 821 821 820 820 819 818 818 817 816 816 815 814 813 812 811 809 806 806 806 803 801 798 797 797 797 797 798 794 789 789 787 783 782 782 781 780 780 779 777 776 775 775
797 797 798 798 797 797 798 799 799 799 801 801 802 803 803 804 805 806 808 809 811 812 814 815 816 817 817 818 818 819 819 819 820 820 820 820 820 819 819 819 819 818 818 818 817 816 816 815 815 815 814 813 813 811 811 810 809 809 807 804 803 803 801 799 797 795 794 794 795 795 792 788 787 786 783 780 779 779 779 778 776 775 774 773 774
796 796 796 796 796 796 797 797 798 799 800 801 801 802 803 804 805 806 807 809 810 812 813 814 815 816 816 816 817 817 817 817 818 818 818 819 819 818 818 818 817 817 816 815 814 813 812 811 811 811 810 809 809 808 807 806 805 805 804 802 801 801 798 797 796 795 792 790 792 793 790 786 786 785 783 781 778 777 777 777 776 775 773 772 773